Tracking 26218 objects as of 26-Sep-2022
HD Live streaming from Space Station
objects crossing your sky now

FLOCK 4X 35

Track FLOCK 4X 35 now!
10-day predictions


NORAD ID: 51048
Int'l Code: 2022-002BS
Perigee: 516.1 km
Apogee: 530.6 km
Inclination: 97.5 °
Period: 95.0 minutes
Semi major axis: 6894 km
RCS: Unknown
Launch date: January 13, 2022
Source: United States (US)
Launch site: AIR FORCE EASTERN TEST RANGE (AFETR)
aabbcc
Your satellite tracking list
Your tracking list is empty




NASA's NSSDC Master Catalog

Two Line Element Set (TLE):
1 51048U 22002BS  22268.72498118  .00011964  00000-0  61490-3 0  9998
2 51048  97.4737 334.2958 0010476  81.4898 278.7522 15.16575808 38614
Source of the keplerian elements: AFSPC